Other Surface Observations
Issued by NWS

Home | Current Version | Previous Version | Text Only | Print | Product List | Glossary On
Versions: 1 2 3 4 5 6 7 8 9 10 11 12 13 14 15 16 17 18 19 20 21 22 23 24 25 26 27 28 29 30 31 32 33 34 35 36 37 38 39 40 41 42 43 44 45 46 47 48 49 50
000
SXUS52 KTAE 290619
OSOTAE
OSOTAE
North Florida/South Alabama/Southwest Georgia Weather Roundup
National Weather Service Tallahassee Florida
200 AM EDT MON MAY 29 2017

Note: "fair" indicates few or no clouds below 12,000 feet with no
significant weather and/or obstructions to visibility.

!FLZ017-115-028-034-025-290700
...North Florida...

CITY           SKY/WX    TMP DP  RH WIND       PRES   REMARKS
TALLAHASSEE    MOCLDY    78  74  87 W8        30.03R
APALACHICOLA   MOCLDY    78  78 100 NW5       30.01R
PERRY          CLOUDY    78  75  89 W5        30.02R
CROSS CITY     PTCLDY    75  73  94 W5        30.01R
JACKSONVILLE   PTCLDY    76  74  93 W6        29.98R
$$

!FLZ112-006-005-002-011-290700
...Florida Panhandle...

CITY           SKY/WX    TMP DP  RH WIND       PRES   REMARKS
MARIANNA       PTCLDY    75  74  96 SW5       30.01S
BONIFAY        NOT AVBL
PANAMA CITY NW FAIR      76  73  91 CALM      30.00F
TYNDALL AFB    PTCLDY    78  75  89 NW8       30.02R
TYND DRONE APT MOCLDY    78  76  92 NW8       30.02R
DE FUNIAK SPR  FAIR      73  72  98 CALM      30.02F
EGLIN AFB      MOCLDY    77  74  90 N3        30.01S
DESTIN         CLOUDY    82  81  96 VRB3      30.00F HX  95
HURLBURT       MOCLDY    78  75  91 NW7       29.99S
CRESTVIEW      MOCLDY    72  70  93 CALM      30.02F
PENSACOLA      CLOUDY    78  73  84 N3        30.01R
$$

!ALZ063-066-290700
...South Alabama...

CITY           SKY/WX    TMP DP  RH WIND       PRES   REMARKS
DOTHAN         CLOUDY    74  74 100 SW6       30.04F
OZARK CAIRNS   CLOUDY    74  72  94 SW5       30.01S
FT RUCKER HELI CLOUDY    73  72  97 CALM      30.01S
RUCKER HELI 3  CLOUDY    73  71  93 CALM      30.01S
RUCKER HELI 2  CLOUDY    73  72  94 CALM      30.00S FOG
FLORALA APT    PTCLDY    71  69  93 CALM      30.03S
ANDALUSIA      CLOUDY    75  71  87 CALM      30.00F
TROY           CLOUDY    72  70  93 CALM      30.02R
EUFALA         FAIR      75  68  78 W5        29.98S
MOBILE         CLOUDY    76  73  91 CALM      30.02R
$$

!GAZ120>161-290700
...Southwest and South Central Georgia...

CITY           SKY/WX    TMP DP  RH WIND       PRES   REMARKS
THOMASVILLE    FAIR      77  77 100 W6        30.03S
BAINBRIDGE     MOCLDY    77  72  83 CALM      30.02F
MOODY AFB      CLOUDY    78  72  80 W6        29.99R
VALDOSTA       CLOUDY    76  72  87 CALM      30.01R
MOULTRIE       CLOUDY    77  72  83 W5        30.02S
BLAKELY        CLOUDY    75  72  88 CALM      30.01S
ALBANY         CLOUDY    77  73  87 SW8       30.00F
TIFTON         FAIR      77  73  88 W8        30.00S
FITZGERALD     CLOUDY    78  73  86 W6        30.01S
CORDELE        FAIR      80  73  78 SW6       29.99S
AMERICUS       FAIR      73  66  78 W7        30.00S
HOMERVILLE     FAIR     N/A N/A N/A W8        30.00S
$$

!GMZ750-755-770-775-290700
...Coastal and Buoy Obs...

STATION/POSITION TIME  TEMP    WIND        PRES    VSBY  WAVE
                       AIR SEA DIR/SP/G                  HT/PER
                 (UTC) (F)     (DEG/KT/KT) (MB)    (MI)  (FT/S)
KEATON BEACH     0600   79     280/ 14/ 17 1016.0R
CEDAR KEY        0600   79     270/  7/ 11 1016.3R
C TOWER          0600   78     240/ 11/ 12 1016.8R
APALACHICOLA BUO 0550   78 79  220/ 12/ 14 1015.5S         2/ 3
PANAMA CITY BUOY 0550   79 78  210/ 14/ 16 1015.0F         2/ 4
MOBILE BUOY      0600   80 80  180/ 16/ 19 1014.8
ORANGE BCH AL BU 0550   79 79  310/  8/ 10 1015.7R         3/ 5
$$




USA.gov is the U.S. government's official web portal to all federal, state and local government web resources and services.